Location: Jaite
(41.2884°N, 81.5737°W)
Time: 11:27:20
(UTC+00:00)

Cosmos 1626 Rocket - Pass Details

Date: 18 January 2020
Orbit: 603 x 631 km, 82.5° (Epoch: 18 February)

Event Time Altitude Azimuth Distance (km) Brightness Sun altitude
Exits shadow 10:38:36 87° 173° (S) 614 3.4 -24.1°
Drops below altitude 10° 10:42:52 10° 174° (S) 1,957 6.3 -23.3°
Sets 10:45:04 0° 174° (S) 2,860 7.2 -22.9°
